Location: Unspecified
(0.0000°N, 0.0000°E)
Time: 18:29:02
(UTC+00:00)

MetOp-A - Pass Details

Date: 04 August 2021
Orbit: 819 x 821 km, 98.5° (Epoch: 26 September)

Event Time Altitude Azimuth Distance (km) Brightness Sun altitude
Exits shadow 19:33:14 40° 90° (E) 1,191 4.5 -20.8°
Maximum altitude 19:33:39 41° 78° (ENE) 1,177 4.5 -20.9°
Drops below altitude 10° 19:38:38 10° 9° (N) 2,407 6.7 -22.1°
Sets 19:41:05 0° 2° (N) 3,336 7.5 -22.7°
